www.pogodaiklimat.ru

ПОГОДА в Морристауне, NJ

  • Прогноз погоды в Морристауне
  • Монитор погоды в Морристауне
  • Климат в Морристауне

АРХИВ ПОГОДЫ в Морристауне

Время (UTC), дата Ветер
(напр.,м/с)
 
Видим.   Явления Облачность Т
(С)
Тd
(С)
f
(%)
Тe
(С)
Тes
(С)
Комфортность

P
(гПа)

Po
(гПа)
Тmin
(С)
Tmax
(С)
R
(мм)
SD
(см)
19:50 21.05 СЗ  4
{10} 
24 км    2/0 3600 м
[средняя] 
+22.0  +5.0  33  +22  +27  комфорт    1006.9         
20:45 21.05 С  7
{13} 
24 км    2/0 7500 м
[верхняя] 
+21.0  +2.0  28  +21  +22  комфорт    1007.9         
21:45 21.05 СЗ  6
{13} 
24 км    2/0 3600 м
[средняя] 
+20.0  +1.0  28  +20  +21      1008.3         
22:45 21.05 С  4
{7} 
24 км    2/0 4500 м
[средняя] 
+19.0  +1.0  30  +19  +19      1009.6         
23:45 21.05 С  4
{8} 
16 км    2/0 4500 м
[средняя] 
+17.0  +3.0  39  +17  +17      1011.0         
00:45 22.05 С  16 км    2/0 3600 м
[средняя] 
+15.0  +4.0  48  +15  +15      1012.3         
01:35 22.05   16 км    ясно  +13.0  +8.0  72  +13  +13      1012.6         
01:55 22.05   16 км    ясно  +11.0  +8.0  82  +10  +10      1013.0         
02:15 22.05   16 км    ясно  +11.0  +7.0  76  +10  +10      1012.6         
02:35 22.05   16 км    ясно  +12.0  +6.0  67  +12  +12      1013.0         
02:55 22.05   16 км    ясно  +13.0  +4.0  54  +13  +13      1013.0         
03:15 22.05   16 км    ясно  +14.0  +3.0  47  +14  +14      1013.0         
03:35 22.05   16 км    ясно  +14.0  +3.0  47  +14  +14      1013.0         
03:55 22.05   16 км    ясно  +13.0  +3.0  51  +13  +13      1013.3         
04:15 22.05   16 км    ясно  +13.0  +3.0  51  +13  +13      1013.7         
04:35 22.05 СЗ  16 км    ясно  +13.0  +3.0  51  +12  +12      1013.7         
04:55 22.05   16 км    ясно  +13.0  +3.0  51  +13  +13      1013.7         
05:15 22.05   16 км    ясно  +13.0  +3.0  51  +13  +13      1013.3         
05:35 22.05   16 км    ясно  +13.0  +3.0  51  +13  +13      1013.7         
05:55 22.05   16 км    ясно  +13.0  +3.0  51  +13  +13      1013.7         
06:15 22.05   16 км    ясно  +12.0  +3.0  54  +12  +12      1013.7         
06:35 22.05   16 км    ясно  +12.0  +3.0  54  +12  +12      1014.0         
06:55 22.05   16 км    ясно  +10.0  +9.0  93  +9  +9      1014.0         
07:15 22.05   16 км    ясно  +9.0  +8.0  93  +8  +8      1014.3         
07:35 22.05   16 км    ясно  +9.0  +7.0  87  +8  +8      1014.3         
07:55 22.05   16 км    ясно  +8.0  +6.0  87  +7  +7      1014.7         
08:15 22.05   16 км    ясно  +8.0  +6.0  87  +7  +7      1014.7         
08:35 22.05   16 км    ясно  +8.0  +7.0  93  +7  +7      1015.0         
08:55 22.05   16 км    ясно  +7.0  +6.0  93  +6  +6      1015.3         
09:15 22.05   16 км    ясно  +8.0  +7.0  93  +7  +7      1015.3         
09:35 22.05   16 км    ясно  +10.0  +8.0  87  +9  +9      1015.7         
09:45 22.05   16 км    5/0 7500 м
[верхняя] 
+9.0  +7.0  87  +8  +8      1016.0         
10:45 22.05 СЗ  16 км    5/0 7500 м
[верхняя] 
+14.0  +7.0  63  +13  +13      1016.7         
11:45 22.05 З  16 км    5/0 7500 м
[верхняя] 
+17.0  +7.0  52  +17  +20      1017.4         
12:45 22.05 СВ  16 км    5/0 7500 м
[верхняя] 
+18.0  +5.0  42  +18  +23      1017.0         
12:46 22.05 СВ  16 км    5/0 7500 м
[верхняя] 
+18.0  +5.0  42  +18  +23      1017.0         
13:45 22.05 СВ  16 км    5/0 7500 м
[верхняя] 
+20.0  +5.0  37  +21  +30  комфорт    1017.4         
14:45 22.05 СЗ  16 км    ясно  +21.0  +4.0  33  +22  +40  комфорт    1017.0         
15:45 22.05 В  16 км    5/0 7500 м
[верхняя] 
+22.0  +4.0  31  +22  +36  комфорт    1016.7         
16:55 22.05 В  16 км    5/0 7500 м
[верхняя] 
+23.0  +5.0  31  +23  +38  комфорт    1016.3         
17:45 22.05   16 км    5/0 7500 м
[верхняя] 
+22.0  +4.0  31  +22  +45  комфорт    1016.3         
18:45 22.05 ЮВ  16 км    5/0 7500 м
[верхняя] 
+23.0  +5.0  31  +23  +36  комфорт    1015.7         
19:45 22.05 В  16 км    5/0 7500 м
[верхняя] 
+24.0  +5.0  29  +24  +33  комфорт    1015.7         
20:45 22.05 Ю  16 км    5/0 7500 м
[верхняя] 
+24.0  +5.0  29  +24  +30  комфорт    1015.7         
21:45 22.05 ЮЗ  16 км    5/0 7500 м
[верхняя] 
+23.0  +6.0  33  +23  +26  комфорт    1015.7         
22:45 22.05 ЮЗ  16 км    8/0 3000 м
[средняя] 
+21.0  +7.0  40  +22  +23  комфорт    1015.7         
23:45 22.05 ЮЗ  16 км    8/0 3000 м
[средняя верхняя] 
+20.0  +8.0  46  +22  +22  комфорт    1015.7         
00:45 23.05   16 км    5/0 7500 м
[верхняя] 
+15.0  +12.0  82  +15  +15      1016.3         

 

Местоположение метеостанции Morristown Municipal Airport: широта 40.8000 долгота -74.4167 высота над уровнем моря 57 м.

В архиве по умолчанию представлена погода в Морристауне за последние 1-2 суток. Обновление информации о фактической погоде в базе происходит ежечасно! Архивные данные за месяц целиком и за предыдущие месяцы Вы можете получить, выбрав интересующий диапазон дат из раскрывающегося списка и нажав кнопку "Ввод!".

Внимание! Архив погоды МЕТАР в базе сайта хранится не более 60 дней. Нет смысла пытаться выбрать более раннюю дату.

Внимание! Время в таблицах - всемирное. Для получения местного времени необходимо прибавить поправку, которая в Морристауне равна -5 ч.

Ветер - указаны скорость ветра в м/с и направление, откуда дует ветер: С - северный, СВ - северо-восточный, В - восточный, ЮВ - юго-восточный, Ю - южный, ЮЗ - юго-западный, З - западный, СЗ - северо-западный.
Видимость - горизонтальная дальность видимости в метрах или километрах. При видимости от 1 до 10 км при отсутствии осадков обычно наблюдается дымка, при ухудшении видимости до 1 км и менее - туман. В сухую погоду видимость может ухудшаться дымом, пылью или мглою.
Атмосферные явления - указаны явления, наблюдавшиеся в указанный момент времени.
Облачность - указаны через наклонную черту верхняя и нижняя облачность в баллах и высота нижней границы облаков в метрах. Внимание: облачность, как и прочие метеорологические величины в США измеряются автоматическими метеостанциями. Указанные значения в баллах носят условный характер и показывают процент времени, в течение которого, в среднем, лазерный луч высотомера отражался от облаков обратно.
T - Температура воздуха - температура, измеренная на высоте 2 м над землей.
Td - Температура точки росы - температура, при понижении до которой содержащийся в воздухе водяной пар достигнет насыщения.
f - Относительная влажность воздуха - влажноcть воздуха, измеренная на высоте 2 м над землей.
Te - Эффективная температура - температура, которую ощущает одетый по сезону человек в тени. Характеристика душности погоды. При расчете учитывается влияние влажности воздуха и скорости ветра на теплоощущения человека.
Tes - Эффективная температура на солнце - температура, которую ощущает человек, с поправкой на солнечный нагрев. Характеристика знойности погоды. Зависит от высоты солнца над горизонтом, облачности и скорости ветра. Ночью, в пасмурную погоду, а также при ветре 12 м/с и более поправка равна нулю.
P - Атмосферное давление - приведенное к уровню моря атмосферное давление.
Po - Атмосферное давление - измеренное на уровне метеостанции атмосферное давление.
Tmin - Минимальная температура - минимум температуры воздуха на высоте 2 м над землей.
Tmax - Максимальная температура - максимум температуры воздуха на высоте 2 м над землей.
R - Количество осадков - Количество выпавших осадков за 3 или 6 часов, мм.
SD - Снежный покров - Высота снежного покрова, см.